Lid_Strength_Index
10 8 8 7 6 6 5 3 1 0 -0 0 0 0 0 -0 -1 -1 -1 -0 -0 -1 -1 -1 -1 -1 -0 -0 0 0 -1 -1
8 6 7 9 8 6 7 5 4 2 0 0 0 1 0 -0 -0 -0 -0 -1 -0 -1 -1 -0 -0 -0 -0 0 0 0 -1 -1
8 8 7 7 6 5 7 6 6 4 3 1 -0 -1 -1 -1 -0 0 -0 -0 -0 -0 -0 -0 0 -0 -0 0 0 -1 -1 -1
10 9 9 9 8 7 6 6 4 6 4 3 1 -1 -1 -1 -0 1 0 1 0 0 0 0 -0 -1 -1 -0 -1 -1 -1 -1
10 10 10 10 9 8 8 7 6 6 3 4 4 2 -1 -1 -1 -1 -1 -0 -1 -1 -1 -1 -1 -1 -1 -1 -1 -1 -1 -1
10 9 9 9 8 9 8 7 7 6 5 4 3 3 2 -1 -0 -1 -1 -1 -1 -0 -0 -1 -1 -1 -1 -1 -1 -1 -1 -1
10 10 9 9 9 9 8 8 7 6 5 4 4 3 3 3 2 -0 -0 -1 -0 0 -0 0 -0 -1 -1 -1 -1 -1 -1 -1
10 10 9 9 10 9 9 8 7 7 6 5 4 3 3 2 3 2 -0 -1 -0 -0 0 0 0 -0 -0 -1 -1 -1 -1 -1
11 10 9 10 9 9 9 9 8 8 7 6 5 4 3 3 2 3 2 -0 -0 -0 -0 0 0 0 0 -0 -0 -1 -1 -1
11 11 10 10 10 10 9 9 9 8 7 7 6 5 4 4 2 1 -0 2 0 0 0 1 1 1 1 0 -0 -0 -0 -1
12 11 11 10 10 10 9 9 9 8 8 7 6 5 5 5 4 3 1 0 3 1 1 1 1 1 1 0 0 0 -0 -0
12 11 11 10 10 10 10 9 9 9 8 8 7 6 6 6 5 4 3 1 0 1 1 1 1 1 2 1 1 0 -0 0
12 12 11 11 11 12 12 12 10 10 9 8 8 7 6 6 5 4 3 2 0 0 1 2 2 1 2 2 2 1 1 0
12 12 12 12 12 12 12 11 11 10 9 9 8 7 6 6 5 4 4 3 2 0 1 2 3 1 3 3 5 3 2 1
13 12 12 12 12 12 12 11 11 11 11 10 8 7 6 5 6 5 4 3 3 2 0 1 3 2 2 3 6 6 4 2
12 12 12 12 12 13 13 13 14 12 11 10 9 7 6 5 4 4 4 3 3 2 1 1 1 3 2 2 2 2 5 6
12 12 12 12 13 12 12 12 12 11 11 10 10 8 7 6 5 4 4 3 2 3 1 1 1 2 2 3 3 3 2 4
12 12 12 11 12 12 11 12 12 12 12 12 12 10 10 8 8 7 6 5 4 2 0 0 1 1 2 2 3 4 4 4
12 12 11 11 12 11 12 13 13 13 13 13 13 12 12 11 9 8 7 5 3 1 0 1 1 2 1 2 2 2 2 3
12 12 12 11 11 12 12 13 13 13 13 14 13 13 12 11 10 9 8 7 6 1 1 1 1 1 1 1 2 2 1 2